Time,TemperatureF,DewpointF,PressureIn,WindDirection,WindDirectionDegrees,WindSpeedMPH,WindSpeedGustMPH,Humidity,HourlyPrecipIn,Conditions,Clouds,dailyrainin,SolarRadiationWatts/m^2,SoftwareType,DateUTC
2013-05-30 00:00:00,64.1,62.9,29.79,NE,55,1.0,7.0,96,0.36,,---,0.65,0.00,VWS V14.01,2013-05-30 05:00:00,
2013-05-30 00:01:00,64.0,62.8,29.80,NE,55,1.0,2.0,96,0.27,,---,0.01,0.00,VWS V14.01,2013-05-30 05:01:00,
2013-05-30 00:06:00,64.0,63.1,29.81,NE,55,2.0,2.0,97,0.31,,---,0.05,0.00,VWS V14.01,2013-05-30 05:06:00,
2013-05-30 00:11:00,64.0,63.1,29.80,NE,55,3.0,3.0,97,0.32,,---,0.06,0.00,VWS V14.01,2013-05-30 05:11:00,
2013-05-30 00:16:00,64.0,63.1,29.80,NE,55,0.0,3.0,97,0.33,,---,0.07,0.00,VWS V14.01,2013-05-30 05:16:00,
2013-05-30 00:21:00,63.9,63.0,29.80,NE,55,1.0,3.0,97,0.33,,---,0.07,0.00,VWS V14.01,2013-05-30 05:21:00,
2013-05-30 00:26:00,63.9,63.0,29.80,NE,55,2.0,3.0,97,0.33,,---,0.07,0.00,VWS V14.01,2013-05-30 05:26:00,
2013-05-30 00:31:00,63.8,62.9,29.80,NE,55,2.0,3.0,97,0.35,,---,0.09,0.00,VWS V14.01,2013-05-30 05:31:00,
2013-05-30 00:36:00,63.8,62.9,29.79,NE,55,1.0,3.0,97,0.35,,---,0.09,0.00,VWS V14.01,2013-05-30 05:36:00,
2013-05-30 00:41:00,63.8,62.9,29.79,NE,55,0.0,3.0,97,0.36,,---,0.10,0.00,VWS V14.01,2013-05-30 05:41:00,
2013-05-30 00:46:00,63.7,62.8,29.80,ESE,105,1.0,3.0,97,0.36,,---,0.10,0.00,VWS V14.01,2013-05-30 05:46:00,
2013-05-30 00:51:00,63.7,62.8,29.79,ESE,105,2.0,3.0,97,0.36,,---,0.10,0.00,VWS V14.01,2013-05-30 05:51:00,
2013-05-30 00:56:00,63.7,62.8,29.79,NE,50,1.0,3.0,97,0.36,,---,0.10,0.00,VWS V14.01,2013-05-30 05:56:00,
2013-05-30 01:00:00,63.7,62.8,29.79,NE,50,0.0,3.0,97,0.36,,---,0.10,0.00,VWS V14.01,2013-05-30 06:00:00,
2013-05-30 01:01:00,63.7,62.8,29.79,NE,50,0.0,1.0,97,0.10,,---,0.10,0.00,VWS V14.01,2013-05-30 06:01:00,
2013-05-30 01:06:00,63.7,62.8,29.78,NE,50,0.0,1.0,97,0.10,,---,0.10,0.00,VWS V14.01,2013-05-30 06:06:00,
2013-05-30 01:11:00,63.7,62.8,29.79,NE,50,0.0,1.0,97,0.10,,---,0.10,0.00,VWS V14.01,2013-05-30 06:11:00,
2013-05-30 01:16:00,63.8,62.9,29.78,ENE,74,1.0,2.0,97,0.10,,---,0.10,0.00,VWS V14.01,2013-05-30 06:16:00,
2013-05-30 01:21:00,63.8,62.9,29.78,NE,52,2.0,3.0,97,0.10,,---,0.10,0.00,VWS V14.01,2013-05-30 06:21:00,
2013-05-30 01:26:00,63.8,62.9,29.77,NE,46,3.0,4.0,97,0.10,,---,0.10,0.00,VWS V14.01,2013-05-30 06:26:00,
2013-05-30 01:31:00,63.8,62.9,29.77,NE,50,4.0,4.0,97,0.10,,---,0.10,0.00,VWS V14.01,2013-05-30 06:31:00,
2013-05-30 01:36:00,63.7,62.8,29.77,NE,50,0.0,4.0,97,0.10,,---,0.10,0.00,VWS V14.01,2013-05-30 06:36:00,
2013-05-30 01:41:00,63.7,62.8,29.77,NE,50,1.0,4.0,97,0.10,,---,0.10,0.00,VWS V14.01,2013-05-30 06:41:00,
2013-05-30 01:46:00,63.7,62.8,29.77,NE,50,0.0,4.0,97,0.10,,---,0.10,0.00,VWS V14.01,2013-05-30 06:46:00,
2013-05-30 01:51:00,63.7,62.8,29.77,NE,50,0.0,5.0,97,0.10,,---,0.10,0.00,VWS V14.01,2013-05-30 06:51:00,
2013-05-30 01:56:00,63.7,62.8,29.77,East,87,2.0,5.0,97,0.10,,---,0.10,0.00,VWS V14.01,2013-05-30 06:56:00,
2013-05-30 02:00:00,63.7,62.8,29.77,East,87,2.0,5.0,97,0.10,,---,0.10,0.00,VWS V14.01,2013-05-30 07:00:00,
2013-05-30 02:01:00,63.6,62.7,29.77,NE,55,2.0,4.0,97,0.00,,---,0.10,0.00,VWS V14.01,2013-05-30 07:01:00,
2013-05-30 02:06:00,63.6,62.7,29.77,NE,49,1.0,4.0,97,0.00,,---,0.10,0.00,VWS V14.01,2013-05-30 07:06:00,
2013-05-30 02:11:00,63.5,62.6,29.76,ENE,63,1.0,5.0,97,0.00,,---,0.10,0.00,VWS V14.01,2013-05-30 07:11:00,
2013-05-30 02:16:00,63.5,62.6,29.76,ENE,64,1.0,5.0,97,0.00,,---,0.10,0.00,VWS V14.01,2013-05-30 07:16:00,
2013-05-30 02:21:00,63.4,62.5,29.76,ENE,63,1.0,5.0,97,0.00,,---,0.10,0.00,VWS V14.01,2013-05-30 07:21:00,
2013-05-30 02:26:00,63.4,62.5,29.76,ENE,63,1.0,5.0,97,0.00,,---,0.10,0.00,VWS V14.01,2013-05-30 07:26:00,
2013-05-30 02:31:00,63.3,62.4,29.76,ENE,63,2.0,5.0,97,0.00,,---,0.10,0.00,VWS V14.01,2013-05-30 07:31:00,
2013-05-30 02:36:00,63.2,62.3,29.76,ENE,63,2.0,5.0,97,0.00,,---,0.10,0.00,VWS V14.01,2013-05-30 07:36:00,
2013-05-30 02:41:00,63.2,62.3,29.76,ENE,63,1.0,5.0,97,0.00,,---,0.10,0.00,VWS V14.01,2013-05-30 07:41:00,
2013-05-30 02:46:00,63.1,62.2,29.75,ENE,63,1.0,5.0,97,0.00,,---,0.10,0.00,VWS V14.01,2013-05-30 07:46:00,
2013-05-30 02:51:00,63.1,62.2,29.75,ENE,63,0.0,5.0,97,0.00,,---,0.10,0.00,VWS V14.01,2013-05-30 07:51:00,
2013-05-30 02:56:00,63.0,62.1,29.75,ENE,63,1.0,5.0,97,0.00,,---,0.10,0.00,VWS V14.01,2013-05-30 07:56:00,
2013-05-30 03:00:00,63.0,62.1,29.75,ENE,63,0.0,5.0,97,0.00,,---,0.10,0.00,VWS V14.01,2013-05-30 08:00:00,
2013-05-30 03:01:00,63.0,62.1,29.75,ENE,63,1.0,1.0,97,0.00,,---,0.10,0.00,VWS V14.01,2013-05-30 08:01:00,
2013-05-30 03:06:00,62.9,62.0,29.75,ENE,63,0.0,1.0,97,0.00,,---,0.10,0.00,VWS V14.01,2013-05-30 08:06:00,
2013-05-30 03:11:00,62.7,61.8,29.76,ENE,63,0.0,1.0,97,0.00,,---,0.10,0.00,VWS V14.01,2013-05-30 08:11:00,
2013-05-30 03:16:00,62.7,61.8,29.75,ENE,63,0.0,1.0,97,0.00,,---,0.10,0.00,VWS V14.01,2013-05-30 08:16:00,
2013-05-30 03:21:00,62.6,61.7,29.75,ENE,63,0.0,1.0,97,0.00,,---,0.10,0.00,VWS V14.01,2013-05-30 08:21:00,
2013-05-30 03:26:00,62.6,61.7,29.75,ENE,63,0.0,1.0,97,0.00,,---,0.10,0.00,VWS V14.01,2013-05-30 08:26:00,
2013-05-30 03:31:00,62.5,61.6,29.75,ENE,63,0.0,1.0,97,0.00,,---,0.10,0.00,VWS V14.01,2013-05-30 08:31:00,
2013-05-30 03:36:00,62.5,61.6,29.75,ENE,63,0.0,2.0,97,0.00,,---,0.10,0.00,VWS V14.01,2013-05-30 08:36:00,
2013-05-30 03:41:00,62.5,61.6,29.75,ENE,63,0.0,2.0,97,0.00,,---,0.10,0.00,VWS V14.01,2013-05-30 08:41:00,
2013-05-30 03:46:00,62.4,61.5,29.75,ENE,63,2.0,2.0,97,0.00,,---,0.10,0.00,VWS V14.01,2013-05-30 08:46:00,
2013-05-30 03:51:00,62.5,61.6,29.75,ENE,63,1.0,2.0,97,0.00,,---,0.10,0.00,VWS V14.01,2013-05-30 08:51:00,
2013-05-30 03:56:00,62.4,61.5,29.74,ENE,63,1.0,2.0,97,0.00,,---,0.10,0.00,VWS V14.01,2013-05-30 08:56:00,
2013-05-30 04:00:00,62.5,61.6,29.74,ENE,63,2.0,3.0,97,0.00,,---,0.10,0.00,VWS V14.01,2013-05-30 09:00:00,
2013-05-30 04:01:00,62.5,61.6,29.74,ENE,63,1.0,3.0,97,0.00,,---,0.10,0.00,VWS V14.01,2013-05-30 09:01:00,
2013-05-30 04:06:00,62.4,61.5,29.74,ENE,63,1.0,3.0,97,0.00,,---,0.10,0.00,VWS V14.01,2013-05-30 09:06:00,
2013-05-30 04:11:00,62.4,61.5,29.74,ENE,63,0.0,3.0,97,0.00,,---,0.10,0.00,VWS V14.01,2013-05-30 09:11:00,
2013-05-30 04:16:00,62.4,61.5,29.74,ENE,63,0.0,3.0,97,0.00,,---,0.10,0.00,VWS V14.01,2013-05-30 09:16:00,
2013-05-30 04:21:00,62.3,61.4,29.74,ENE,63,0.0,3.0,97,0.00,,---,0.10,0.00,VWS V14.01,2013-05-30 09:21:00,
2013-05-30 04:26:00,62.3,61.7,29.73,ENE,63,0.0,3.0,98,0.00,,---,0.10,0.00,VWS V14.01,2013-05-30 09:26:00,
2013-05-30 04:31:00,62.2,61.6,29.73,ENE,63,1.0,3.0,98,0.00,,---,0.10,0.00,VWS V14.01,2013-05-30 09:31:00,
2013-05-30 04:36:00,62.2,61.6,29.73,ENE,63,0.0,3.0,98,0.00,,---,0.10,0.00,VWS V14.01,2013-05-30 09:36:00,
2013-05-30 04:41:00,62.2,61.6,29.72,ENE,63,0.0,3.0,98,0.00,,---,0.10,0.00,VWS V14.01,2013-05-30 09:41:00,
2013-05-30 04:46:00,62.2,61.6,29.72,ENE,63,0.0,3.0,98,0.00,,---,0.10,0.00,VWS V14.01,2013-05-30 09:46:00,
2013-05-30 04:51:00,62.1,61.5,29.72,ENE,63,0.0,3.0,98,0.00,,---,0.10,0.00,VWS V14.01,2013-05-30 09:51:00,
2013-05-30 04:56:00,62.2,61.6,29.72,ENE,63,0.0,3.0,98,0.00,,---,0.10,0.00,VWS V14.01,2013-05-30 09:56:00,
2013-05-30 05:00:00,62.2,61.6,29.72,ENE,63,0.0,3.0,98,0.00,,---,0.10,0.00,VWS V14.01,2013-05-30 10:00:00,
2013-05-30 05:01:00,62.1,61.5,29.72,ENE,63,0.0,0.0,98,0.00,,---,0.10,0.00,VWS V14.01,2013-05-30 10:01:00,
2013-05-30 05:06:00,62.1,61.5,29.72,ENE,63,0.0,1.0,98,0.00,,---,0.10,0.00,VWS V14.01,2013-05-30 10:06:00,
2013-05-30 05:11:00,62.1,61.5,29.72,ENE,63,0.0,1.0,98,0.00,,---,0.10,0.00,VWS V14.01,2013-05-30 10:11:00,
2013-05-30 05:16:00,62.0,61.4,29.72,ENE,63,0.0,2.0,98,0.00,,---,0.10,0.00,VWS V14.01,2013-05-30 10:16:00,
2013-05-30 05:21:00,62.1,61.5,29.72,ENE,63,0.0,2.0,98,0.00,,---,0.10,0.00,VWS V14.01,2013-05-30 10:21:00,
2013-05-30 05:26:00,62.0,61.4,29.73,ENE,63,0.0,2.0,98,0.00,,---,0.10,0.00,VWS V14.01,2013-05-30 10:26:00,
2013-05-30 05:31:00,62.2,61.6,29.72,East,84,0.0,2.0,98,0.00,,---,0.10,5.00,VWS V14.01,2013-05-30 10:31:00,
2013-05-30 05:36:00,62.4,61.8,29.72,East,84,0.0,2.0,98,0.00,,---,0.10,7.00,VWS V14.01,2013-05-30 10:36:00,
2013-05-30 05:41:00,62.5,61.9,29.72,East,84,0.0,2.0,98,0.00,,---,0.10,11.00,VWS V14.01,2013-05-30 10:41:00,
2013-05-30 05:46:00,63.0,62.4,29.72,East,84,0.0,2.0,98,0.00,,---,0.10,12.00,VWS V14.01,2013-05-30 10:46:00,
2013-05-30 05:51:00,63.5,62.9,29.72,East,98,0.0,3.0,98,0.00,,---,0.10,16.00,VWS V14.01,2013-05-30 10:51:00,
2013-05-30 05:56:00,64.1,63.5,29.72,ESE,111,2.0,3.0,98,0.00,,---,0.10,19.00,VWS V14.01,2013-05-30 10:56:00,
2013-05-30 06:00:00,64.5,63.9,29.72,SSW,197,1.0,5.0,98,0.00,,---,0.10,21.00,VWS V14.01,2013-05-30 11:00:00,
2013-05-30 06:01:00,64.7,64.1,29.72,SSW,197,2.0,4.0,98,0.00,,---,0.10,23.00,VWS V14.01,2013-05-30 11:01:00,
2013-05-30 06:06:00,64.9,64.3,29.72,SSW,200,1.0,4.0,98,0.00,,---,0.10,25.00,VWS V14.01,2013-05-30 11:06:00,
2013-05-30 06:11:00,65.1,64.5,29.72,SSE,153,3.0,4.0,98,0.00,,---,0.10,28.00,VWS V14.01,2013-05-30 11:11:00,
2013-05-30 06:16:00,65.3,64.7,29.72,SW,215,4.0,4.0,98,0.00,,---,0.10,30.00,VWS V14.01,2013-05-30 11:16:00,
2013-05-30 06:21:00,65.5,64.9,29.73,SSW,197,3.0,5.0,98,0.00,,---,0.10,33.00,VWS V14.01,2013-05-30 11:21:00,
2013-05-30 06:26:00,65.6,65.0,29.73,SSW,195,3.0,5.0,98,0.00,,---,0.10,37.00,VWS V14.01,2013-05-30 11:26:00,
2013-05-30 06:31:00,65.7,65.1,29.73,SSW,207,4.0,5.0,98,0.00,,---,0.10,46.00,VWS V14.01,2013-05-30 11:31:00,
2013-05-30 06:36:00,65.9,65.3,29.73,South,189,5.0,6.0,98,0.00,,---,0.10,56.00,VWS V14.01,2013-05-30 11:36:00,
2013-05-30 06:41:00,66.0,65.4,29.72,WSW,241,0.0,6.0,98,0.00,,---,0.10,76.00,VWS V14.01,2013-05-30 11:41:00,
2013-05-30 06:46:00,66.1,65.5,29.72,SE,138,1.0,6.0,98,0.00,,---,0.10,100.00,VWS V14.01,2013-05-30 11:46:00,
2013-05-30 06:51:00,66.3,65.7,29.72,South,190,2.0,6.0,98,0.00,,---,0.10,132.00,VWS V14.01,2013-05-30 11:51:00,
2013-05-30 06:56:00,66.5,65.9,29.71,SSW,210,3.0,6.0,98,0.00,,---,0.10,163.00,VWS V14.01,2013-05-30 11:56:00,
2013-05-30 07:00:00,66.6,66.0,29.71,South,190,4.0,6.0,98,0.00,,---,0.10,176.00,VWS V14.01,2013-05-30 12:00:00,
2013-05-30 07:01:00,66.7,66.1,29.71,South,190,2.0,6.0,98,0.00,,---,0.10,188.00,VWS V14.01,2013-05-30 12:01:00,
2013-05-30 07:06:00,67.0,66.4,29.71,SSW,198,2.0,8.0,98,0.00,,---,0.10,207.00,VWS V14.01,2013-05-30 12:06:00,
2013-05-30 07:11:00,67.3,66.4,29.71,SSW,211,2.0,8.0,97,0.00,,---,0.10,223.00,VWS V14.01,2013-05-30 12:11:00,
2013-05-30 07:16:00,67.7,66.8,29.71,SSW,203,7.0,8.0,97,0.00,,---,0.10,250.00,VWS V14.01,2013-05-30 12:16:00,
2013-05-30 07:21:00,68.0,66.8,29.71,South,172,0.0,8.0,96,0.00,,---,0.10,276.00,VWS V14.01,2013-05-30 12:21:00,
2013-05-30 07:26:00,68.3,67.1,29.71,SSW,194,2.0,8.0,96,0.00,,---,0.10,301.00,VWS V14.01,2013-05-30 12:26:00,
2013-05-30 07:31:00,68.8,67.0,29.71,South,190,3.0,8.0,94,0.00,,---,0.10,320.00,VWS V14.01,2013-05-30 12:31:00,
2013-05-30 07:36:00,69.3,67.2,29.71,SSE,164,4.0,8.0,93,0.00,,---,0.10,329.00,VWS V14.01,2013-05-30 12:36:00,
2013-05-30 07:41:00,69.8,67.1,29.71,South,180,2.0,9.0,91,0.00,,---,0.10,357.00,VWS V14.01,2013-05-30 12:41:00,
2013-05-30 07:46:00,70.2,67.1,29.71,SW,226,4.0,9.0,90,0.00,,---,0.10,373.00,VWS V14.01,2013-05-30 12:46:00,
2013-05-30 07:51:00,70.5,67.1,29.72,SSW,208,4.0,9.0,89,0.00,,---,0.10,315.00,VWS V14.01,2013-05-30 12:51:00,
2013-05-30 07:56:00,70.7,67.3,29.72,South,175,3.0,9.0,89,0.00,,---,0.10,323.00,VWS V14.01,2013-05-30 12:56:00,
2013-05-30 08:00:00,70.8,67.1,29.72,SSW,209,6.0,9.0,88,0.00,,---,0.10,297.00,VWS V14.01,2013-05-30 13:00:00,
2013-05-30 08:01:00,70.8,67.1,29.72,SSW,200,7.0,7.0,88,0.00,,---,0.10,295.00,VWS V14.01,2013-05-30 13:01:00,
2013-05-30 08:06:00,71.0,67.3,29.72,SSW,205,4.0,7.0,88,0.00,,---,0.10,322.00,VWS V14.01,2013-05-30 13:06:00,
2013-05-30 08:11:00,71.3,67.6,29.72,SW,217,9.0,9.0,88,0.00,,---,0.10,323.00,VWS V14.01,2013-05-30 13:11:00,
2013-05-30 08:16:00,71.4,67.3,29.72,SSW,200,1.0,9.0,87,0.00,,---,0.10,371.00,VWS V14.01,2013-05-30 13:16:00,
2013-05-30 08:21:00,71.7,68.0,29.72,SW,228,4.0,9.0,88,0.00,,---,0.10,468.00,VWS V14.01,2013-05-30 13:21:00,
2013-05-30 08:26:00,72.3,67.9,29.72,SW,223,1.0,9.0,86,0.00,,---,0.10,482.00,VWS V14.01,2013-05-30 13:26:00,
2013-05-30 08:31:00,72.8,68.0,29.72,SSE,158,3.0,9.0,85,0.00,,---,0.10,499.00,VWS V14.01,2013-05-30 13:31:00,
2013-05-30 08:36:00,73.2,68.4,29.72,SSW,208,3.0,9.0,85,0.00,,---,0.10,476.00,VWS V14.01,2013-05-30 13:36:00,
2013-05-30 08:41:00,73.5,68.4,29.72,South,190,4.0,9.0,84,0.00,,---,0.10,534.00,VWS V14.01,2013-05-30 13:41:00,
2013-05-30 08:46:00,73.8,68.3,29.72,SW,217,5.0,9.0,83,0.00,,---,0.10,534.00,VWS V14.01,2013-05-30 13:46:00,
2013-05-30 08:51:00,73.9,68.8,29.72,SSW,209,1.0,9.0,84,0.00,,---,0.10,536.00,VWS V14.01,2013-05-30 13:51:00,
2013-05-30 08:56:00,74.3,68.8,29.72,SSW,194,7.0,9.0,83,0.00,,---,0.10,557.00,VWS V14.01,2013-05-30 13:56:00,
2013-05-30 09:00:00,74.3,68.8,29.72,NW,309,5.0,9.0,83,0.00,,---,0.10,564.00,VWS V14.01,2013-05-30 14:00:00,
2013-05-30 09:01:00,74.4,68.6,29.72,SSW,198,4.0,9.0,82,0.00,,---,0.10,571.00,VWS V14.01,2013-05-30 14:01:00,
2013-05-30 09:06:00,74.7,68.8,29.72,SSW,193,4.0,9.0,82,0.00,,---,0.10,598.00,VWS V14.01,2013-05-30 14:06:00,
2013-05-30 09:11:00,75.1,68.9,29.72,SSW,207,3.0,9.0,81,0.00,,---,0.10,612.00,VWS V14.01,2013-05-30 14:11:00,
2013-05-30 09:16:00,75.0,68.8,29.72,SSW,192,5.0,10.0,81,0.00,,---,0.10,628.00,VWS V14.01,2013-05-30 14:16:00,
2013-05-30 09:21:00,75.3,69.1,29.72,South,184,3.0,10.0,81,0.00,,---,0.10,654.00,VWS V14.01,2013-05-30 14:21:00,
2013-05-30 09:26:00,75.4,68.8,29.72,SSW,213,4.0,10.0,80,0.00,,---,0.10,654.00,VWS V14.01,2013-05-30 14:26:00,
2013-05-30 09:31:00,75.5,69.3,29.72,SSE,152,3.0,11.0,81,0.00,,---,0.10,429.00,VWS V14.01,2013-05-30 14:31:00,
2013-05-30 09:36:00,75.6,69.0,29.72,South,179,3.0,11.0,80,0.00,,---,0.10,394.00,VWS V14.01,2013-05-30 14:36:00,
2013-05-30 09:41:00,75.9,69.3,29.71,SSW,208,3.0,11.0,80,0.00,,---,0.10,708.00,VWS V14.01,2013-05-30 14:41:00,
2013-05-30 09:46:00,76.5,69.5,29.70,SSW,213,4.0,11.0,79,0.00,,---,0.10,664.00,VWS V14.01,2013-05-30 14:46:00,
2013-05-30 09:51:00,76.9,69.5,29.70,SSE,161,3.0,11.0,78,0.00,,---,0.10,554.00,VWS V14.01,2013-05-30 14:51:00,
2013-05-30 09:56:00,76.8,69.4,29.70,SSE,166,2.0,11.0,78,0.00,,---,0.10,661.00,VWS V14.01,2013-05-30 14:56:00,
2013-05-30 10:00:00,76.9,69.5,29.70,SW,225,2.0,11.0,78,0.00,,---,0.10,759.00,VWS V14.01,2013-05-30 15:00:00,
2013-05-30 10:01:00,77.2,69.4,29.69,SSW,200,3.0,6.0,77,0.00,,---,0.10,772.00,VWS V14.01,2013-05-30 15:01:00,
2013-05-30 10:06:00,78.0,70.2,29.69,SSW,202,5.0,6.0,77,0.00,,---,0.10,838.00,VWS V14.01,2013-05-30 15:06:00,
2013-05-30 10:11:00,78.3,69.7,29.69,SSW,207,4.0,8.0,75,0.00,,---,0.10,902.00,VWS V14.01,2013-05-30 15:11:00,
2013-05-30 10:16:00,79.1,70.1,29.69,South,190,2.0,8.0,74,0.00,,---,0.10,840.00,VWS V14.01,2013-05-30 15:16:00,
2013-05-30 10:21:00,78.7,69.7,29.69,SE,138,2.0,9.0,74,0.00,,---,0.10,854.00,VWS V14.01,2013-05-30 15:21:00,
2013-05-30 10:26:00,79.0,69.6,29.69,South,174,1.0,9.0,73,0.00,,---,0.10,826.00,VWS V14.01,2013-05-30 15:26:00,
2013-05-30 10:31:00,79.6,71.4,29.69,SSW,213,3.0,9.0,76,0.00,,---,0.10,916.00,VWS V14.01,2013-05-30 15:31:00,
2013-05-30 10:36:00,79.5,69.7,29.70,SW,214,4.0,9.0,72,0.00,,---,0.10,457.00,VWS V14.01,2013-05-30 15:36:00,
2013-05-30 10:41:00,79.8,70.0,29.69,SSE,164,1.0,9.0,72,0.00,,---,0.10,360.00,VWS V14.01,2013-05-30 15:41:00,
2013-05-30 10:46:00,79.3,69.9,29.69,South,191,2.0,11.0,73,0.00,,---,0.10,403.00,VWS V14.01,2013-05-30 15:46:00,
2013-05-30 10:51:00,79.3,69.5,29.69,SSE,159,6.0,11.0,72,0.00,,---,0.10,413.00,VWS V14.01,2013-05-30 15:51:00,
2013-05-30 10:56:00,79.1,69.7,29.70,SSE,150,3.0,11.0,73,0.00,,---,0.10,963.00,VWS V14.01,2013-05-30 15:56:00,
2013-05-30 11:00:00,79.5,70.1,29.70,SSW,203,3.0,11.0,73,0.00,,---,0.10,954.00,VWS V14.01,2013-05-30 16:00:00,
2013-05-30 11:01:00,79.2,69.8,29.70,SSE,153,3.0,7.0,73,0.00,,---,0.10,290.00,VWS V14.01,2013-05-30 16:01:00,
2013-05-30 11:06:00,78.7,69.3,29.70,South,186,2.0,8.0,73,0.00,,---,0.10,265.00,VWS V14.01,2013-05-30 16:06:00,
2013-05-30 11:11:00,78.0,69.4,29.70,SW,225,6.0,9.0,75,0.00,,---,0.10,239.00,VWS V14.01,2013-05-30 16:11:00,
2013-05-30 11:16:00,78.8,69.4,29.70,South,178,6.0,9.0,73,0.00,,---,0.10,1039.00,VWS V14.01,2013-05-30 16:16:00,
2013-05-30 11:21:00,78.6,68.4,29.71,SSW,207,4.0,9.0,71,0.00,,---,0.10,304.00,VWS V14.01,2013-05-30 16:21:00,
2013-05-30 11:26:00,78.0,68.7,29.71,SSW,210,4.0,11.0,73,0.00,,---,0.10,279.00,VWS V14.01,2013-05-30 16:26:00,
2013-05-30 11:31:00,78.1,68.8,29.70,SE,142,5.0,11.0,73,0.00,,---,0.10,334.00,VWS V14.01,2013-05-30 16:31:00,
2013-05-30 11:36:00,78.8,69.0,29.70,SSW,207,5.0,11.0,72,0.00,,---,0.10,299.00,VWS V14.01,2013-05-30 16:36:00,
2013-05-30 11:41:00,78.9,69.5,29.70,SSW,207,0.0,11.0,73,0.00,,---,0.10,213.00,VWS V14.01,2013-05-30 16:41:00,
2013-05-30 11:46:00,78.3,70.1,29.70,SE,145,3.0,11.0,76,0.00,,---,0.10,183.00,VWS V14.01,2013-05-30 16:46:00,
2013-05-30 11:51:00,77.8,69.6,29.70,SSW,204,3.0,11.0,76,0.00,,---,0.10,410.00,VWS V14.01,2013-05-30 16:51:00,
2013-05-30 11:56:00,78.2,69.6,29.69,SE,141,3.0,11.0,75,0.00,,---,0.10,482.00,VWS V14.01,2013-05-30 16:56:00,
2013-05-30 12:00:00,79.0,70.0,29.69,South,173,1.0,11.0,74,0.00,,---,0.10,482.00,VWS V14.01,2013-05-30 17:00:00,
2013-05-30 12:01:00,79.6,70.6,29.69,SSE,150,2.0,5.0,74,0.00,,---,0.10,482.00,VWS V14.01,2013-05-30 17:01:00,
2013-05-30 12:06:00,80.6,71.2,29.69,ESE,112,5.0,9.0,73,0.00,,---,0.10,1150.00,VWS V14.01,2013-05-30 17:06:00,
2013-05-30 12:11:00,80.8,70.5,29.68,SSW,201,3.0,9.0,71,0.00,,---,0.10,638.00,VWS V14.01,2013-05-30 17:11:00,
2013-05-30 12:16:00,80.4,71.0,29.68,South,190,9.0,9.0,73,0.00,,---,0.10,468.00,VWS V14.01,2013-05-30 17:16:00,
2013-05-30 12:21:00,79.5,69.7,29.68,South,169,3.0,9.0,72,0.00,,---,0.10,200.00,VWS V14.01,2013-05-30 17:21:00,
2013-05-30 12:26:00,79.1,70.1,29.68,SW,231,4.0,9.0,74,0.00,,---,0.10,432.00,VWS V14.01,2013-05-30 17:26:00,
2013-05-30 12:31:00,79.6,71.0,29.68,SSW,209,2.0,9.0,75,0.00,,---,0.10,432.00,VWS V14.01,2013-05-30 17:31:00,
2013-05-30 12:36:00,79.5,70.1,29.68,South,172,2.0,9.0,73,0.00,,---,0.10,202.00,VWS V14.01,2013-05-30 17:36:00,
2013-05-30 12:41:00,78.7,68.9,29.68,SSW,198,4.0,9.0,72,0.00,,---,0.10,130.00,VWS V14.01,2013-05-30 17:41:00,
2013-05-30 12:46:00,78.0,68.7,29.68,SSW,199,8.0,10.0,73,0.00,,---,0.10,97.00,VWS V14.01,2013-05-30 17:46:00,
2013-05-30 12:51:00,77.8,68.5,29.67,SW,214,3.0,12.0,73,0.00,,---,0.10,51.00,VWS V14.01,2013-05-30 17:51:00,
2013-05-30 12:56:00,77.6,68.7,29.68,SW,217,7.0,12.0,74,0.00,,---,0.10,23.00,VWS V14.01,2013-05-30 17:56:00,
2013-05-30 13:00:00,77.2,68.7,29.68,SSW,211,6.0,12.0,75,0.00,,---,0.10,54.00,VWS V14.01,2013-05-30 18:00:00,
2013-05-30 13:01:00,76.1,68.4,29.68,SW,219,6.0,7.0,77,0.00,,---,0.10,81.00,VWS V14.01,2013-05-30 18:01:00,
2013-05-30 13:06:00,74.4,67.8,29.68,SW,215,4.0,7.0,80,0.00,,---,0.10,105.00,VWS V14.01,2013-05-30 18:06:00,
2013-05-30 13:11:00,74.0,68.2,29.68,SSW,209,3.0,7.0,82,0.00,,---,0.10,165.00,VWS V14.01,2013-05-30 18:11:00,
2013-05-30 13:16:00,74.2,68.4,29.68,SSW,209,1.0,7.0,82,0.00,,---,0.10,90.00,VWS V14.01,2013-05-30 18:16:00,
2013-05-30 13:21:00,74.6,68.8,29.68,SW,214,4.0,7.0,82,0.00,,---,0.10,123.00,VWS V14.01,2013-05-30 18:21:00,
2013-05-30 13:26:00,75.8,69.6,29.68,SSW,192,3.0,7.0,81,0.00,,---,0.10,299.00,VWS V14.01,2013-05-30 18:26:00,
2013-05-30 13:31:00,76.6,70.0,29.67,SW,215,3.0,7.0,80,0.00,,---,0.10,457.00,VWS V14.01,2013-05-30 18:31:00,
2013-05-30 13:36:00,78.0,71.0,29.67,SSW,204,0.0,7.0,79,0.00,,---,0.10,708.00,VWS V14.01,2013-05-30 18:36:00,
2013-05-30 13:41:00,79.2,70.6,29.67,SSE,161,8.0,8.0,75,0.00,,---,0.10,635.00,VWS V14.01,2013-05-30 18:41:00,
2013-05-30 13:46:00,79.4,70.4,29.66,SSE,153,1.0,8.0,74,0.00,,---,0.10,381.00,VWS V14.01,2013-05-30 18:46:00,
2013-05-30 13:51:00,79.4,70.4,29.66,SSW,210,4.0,8.0,74,0.00,,---,0.10,311.00,VWS V14.01,2013-05-30 18:51:00,
2013-05-30 13:56:00,78.8,69.8,29.66,South,189,6.0,9.0,74,0.00,,---,0.10,338.00,VWS V14.01,2013-05-30 18:56:00,
2013-05-30 14:00:00,79.2,70.2,29.66,SSW,207,5.0,9.0,74,0.00,,---,0.10,406.00,VWS V14.01,2013-05-30 19:00:00,
2013-05-30 14:01:00,79.5,70.1,29.66,SSW,213,2.0,5.0,73,0.00,,---,0.10,410.00,VWS V14.01,2013-05-30 19:01:00,
2013-05-30 14:06:00,79.5,69.7,29.65,South,190,7.0,11.0,72,0.00,,---,0.10,200.00,VWS V14.01,2013-05-30 19:06:00,
2013-05-30 14:11:00,79.0,69.2,29.65,SW,217,6.0,11.0,72,0.00,,---,0.10,163.00,VWS V14.01,2013-05-30 19:11:00,
2013-05-30 14:16:00,79.2,70.6,29.65,SSW,209,1.0,11.0,75,0.00,,---,0.10,1129.00,VWS V14.01,2013-05-30 19:16:00,
2013-05-30 14:21:00,81.5,71.2,29.64,SSW,194,5.0,11.0,71,0.00,,---,0.10,893.00,VWS V14.01,2013-05-30 19:21:00,
2013-05-30 14:26:00,81.4,69.8,29.64,SSW,202,5.0,11.0,68,0.00,,---,0.10,348.00,VWS V14.01,2013-05-30 19:26:00,
2013-05-30 14:31:00,80.8,70.5,29.64,SSW,201,5.0,11.0,71,0.00,,---,0.10,332.00,VWS V14.01,2013-05-30 19:31:00,
2013-05-30 14:36:00,80.4,69.3,29.64,SSW,213,5.0,11.0,69,0.00,,---,0.10,278.00,VWS V14.01,2013-05-30 19:36:00,
2013-05-30 14:41:00,80.0,68.5,29.63,SSW,202,2.0,11.0,68,0.00,,---,0.10,158.00,VWS V14.01,2013-05-30 19:41:00,
2013-05-30 14:46:00,79.8,67.4,29.63,SW,225,2.0,11.0,66,0.00,,---,0.10,396.00,VWS V14.01,2013-05-30 19:46:00,
2013-05-30 14:51:00,81.0,67.7,29.63,SSW,208,7.0,11.0,64,0.00,,---,0.10,919.00,VWS V14.01,2013-05-30 19:51:00,
2013-05-30 14:56:00,81.8,68.4,29.63,SW,232,2.0,11.0,64,0.00,,---,0.10,867.00,VWS V14.01,2013-05-30 19:56:00,
2013-05-30 15:00:00,82.4,68.6,29.63,SSW,202,3.0,11.0,63,0.00,,---,0.10,872.00,VWS V14.01,2013-05-30 20:00:00,
2013-05-30 15:01:00,82.7,69.3,29.63,SSE,154,4.0,5.0,64,0.00,,---,0.10,868.00,VWS V14.01,2013-05-30 20:01:00,
2013-05-30 15:06:00,83.1,70.6,29.62,SSW,196,4.0,7.0,66,0.00,,---,0.10,895.00,VWS V14.01,2013-05-30 20:06:00,
2013-05-30 15:11:00,82.4,68.6,29.63,SSE,155,5.0,12.0,63,0.00,,---,0.10,193.00,VWS V14.01,2013-05-30 20:11:00,
2013-05-30 15:16:00,81.1,68.7,29.63,SSW,206,4.0,12.0,66,0.00,,---,0.10,151.00,VWS V14.01,2013-05-30 20:16:00,
2013-05-30 15:21:00,81.0,68.1,29.63,SSE,162,3.0,12.0,65,0.00,,---,0.10,350.00,VWS V14.01,2013-05-30 20:21:00,
2013-05-30 15:26:00,81.5,69.1,29.62,South,188,3.0,12.0,66,0.00,,---,0.10,522.00,VWS V14.01,2013-05-30 20:26:00,
2013-05-30 15:31:00,81.2,67.9,29.62,SSW,205,2.0,12.0,64,0.00,,---,0.10,167.00,VWS V14.01,2013-05-30 20:31:00,
2013-05-30 15:36:00,80.3,67.9,29.62,SSW,204,7.0,12.0,66,0.00,,---,0.10,65.00,VWS V14.01,2013-05-30 20:36:00,
2013-05-30 15:41:00,80.0,67.2,29.61,SE,141,5.0,12.0,65,0.00,,---,0.10,19.00,VWS V14.01,2013-05-30 20:41:00,
2013-05-30 15:46:00,79.2,66.9,29.65,SSW,198,7.0,12.0,66,0.00,,---,0.10,12.00,VWS V14.01,2013-05-30 20:46:00,
2013-05-30 15:51:00,74.3,66.2,29.65,WSW,240,11.0,13.0,76,0.00,,---,0.10,25.00,VWS V14.01,2013-05-30 20:51:00,
2013-05-30 15:56:00,72.4,66.6,29.65,SW,219,6.0,13.0,82,0.01,,---,0.11,69.00,VWS V14.01,2013-05-30 20:56:00,
2013-05-30 16:00:00,71.7,66.6,29.65,WSW,240,4.0,13.0,84,0.01,,---,0.11,63.00,VWS V14.01,2013-05-30 21:00:00,
2013-05-30 16:01:00,71.3,66.6,29.64,WSW,238,1.0,5.0,85,0.01,,---,0.11,109.00,VWS V14.01,2013-05-30 21:01:00,
2013-05-30 16:06:00,70.9,67.2,29.62,SW,226,2.0,5.0,88,0.01,,---,0.11,33.00,VWS V14.01,2013-05-30 21:06:00,
2013-05-30 16:11:00,70.6,66.9,29.63,WSW,242,0.0,5.0,88,0.01,,---,0.11,51.00,VWS V14.01,2013-05-30 21:11:00,
2013-05-30 16:16:00,70.3,66.9,29.64,SSW,210,5.0,7.0,89,0.02,,---,0.12,123.00,VWS V14.01,2013-05-30 21:16:00,
2013-05-30 16:21:00,70.6,67.8,29.63,SSW,211,5.0,7.0,91,0.02,,---,0.12,334.00,VWS V14.01,2013-05-30 21:21:00,
2013-05-30 16:26:00,71.3,68.9,29.63,SW,234,4.0,7.0,92,0.02,,---,0.12,397.00,VWS V14.01,2013-05-30 21:26:00,
2013-05-30 16:31:00,71.6,68.8,29.64,SW,217,3.0,7.0,91,0.02,,---,0.12,127.00,VWS V14.01,2013-05-30 21:31:00,
2013-05-30 16:36:00,71.4,68.6,29.64,SE,142,6.0,7.0,91,0.02,,---,0.12,23.00,VWS V14.01,2013-05-30 21:36:00,
2013-05-30 16:41:00,71.0,67.6,29.64,South,188,4.0,9.0,89,0.03,,---,0.13,51.00,VWS V14.01,2013-05-30 21:41:00,
2013-05-30 16:46:00,70.1,66.7,29.63,SW,215,1.0,9.0,89,0.03,,---,0.13,93.00,VWS V14.01,2013-05-30 21:46:00,
2013-05-30 16:51:00,69.7,67.0,29.63,SW,215,1.0,9.0,91,0.03,,---,0.13,158.00,VWS V14.01,2013-05-30 21:51:00,
2013-05-30 16:56:00,70.0,67.9,29.64,SW,215,2.0,9.0,93,0.04,,---,0.14,125.00,VWS V14.01,2013-05-30 21:56:00,
2013-05-30 17:00:00,70.3,68.2,29.64,SW,215,1.0,9.0,93,0.04,,---,0.14,213.00,VWS V14.01,2013-05-30 22:00:00,
2013-05-30 17:01:00,70.6,68.8,29.63,SW,215,2.0,2.0,94,0.03,,---,0.14,264.00,VWS V14.01,2013-05-30 22:01:00,
2013-05-30 17:06:00,71.6,69.8,29.62,SW,215,0.0,2.0,94,0.03,,---,0.14,631.00,VWS V14.01,2013-05-30 22:06:00,
2013-05-30 17:11:00,72.5,70.7,29.61,SW,215,0.0,2.0,94,0.03,,---,0.14,343.00,VWS V14.01,2013-05-30 22:11:00,
2013-05-30 17:16:00,72.5,69.7,29.61,SW,214,0.0,2.0,91,0.03,,---,0.14,135.00,VWS V14.01,2013-05-30 22:16:00,
2013-05-30 17:21:00,72.4,69.3,29.61,SSE,155,0.0,2.0,90,0.03,,---,0.14,77.00,VWS V14.01,2013-05-30 22:21:00,
2013-05-30 17:26:00,72.1,68.7,29.62,SSW,212,4.0,5.0,89,0.03,,---,0.14,54.00,VWS V14.01,2013-05-30 22:26:00,
2013-05-30 17:31:00,71.9,68.5,29.63,South,181,2.0,5.0,89,0.03,,---,0.14,56.00,VWS V14.01,2013-05-30 22:31:00,
2013-05-30 17:36:00,71.7,68.3,29.63,South,173,2.0,5.0,89,0.03,,---,0.14,58.00,VWS V14.01,2013-05-30 22:36:00,
2013-05-30 17:41:00,71.7,68.3,29.64,South,180,1.0,5.0,89,0.03,,---,0.14,69.00,VWS V14.01,2013-05-30 22:41:00,
2013-05-30 17:46:00,71.8,68.4,29.63,SSW,196,3.0,5.0,89,0.03,,---,0.14,77.00,VWS V14.01,2013-05-30 22:46:00,
2013-05-30 17:51:00,72.0,68.6,29.63,SW,225,2.0,5.0,89,0.03,,---,0.14,90.00,VWS V14.01,2013-05-30 22:51:00,
2013-05-30 17:56:00,72.3,68.9,29.62,SSE,162,3.0,5.0,89,0.03,,---,0.14,163.00,VWS V14.01,2013-05-30 22:56:00,
2013-05-30 18:00:00,72.6,68.8,29.61,SSE,161,2.0,5.0,88,0.03,,---,0.14,193.00,VWS V14.01,2013-05-30 23:00:00,
2013-05-30 18:01:00,72.7,68.9,29.61,SSE,152,2.0,3.0,88,0.00,,---,0.14,244.00,VWS V14.01,2013-05-30 23:01:00,
2013-05-30 18:06:00,73.4,69.3,29.60,SSE,167,2.0,3.0,87,0.00,,---,0.14,432.00,VWS V14.01,2013-05-30 23:06:00,
2013-05-30 18:11:00,74.0,69.6,29.60,South,184,3.0,4.0,86,0.00,,---,0.14,441.00,VWS V14.01,2013-05-30 23:11:00,
2013-05-30 18:16:00,74.5,69.3,29.61,SSW,199,5.0,5.0,84,0.00,,---,0.14,362.00,VWS V14.01,2013-05-30 23:16:00,
2013-05-30 18:21:00,74.7,69.6,29.61,SSW,197,4.0,5.0,84,0.00,,---,0.14,336.00,VWS V14.01,2013-05-30 23:21:00,
2013-05-30 18:26:00,74.9,69.4,29.61,SSW,211,7.0,7.0,83,0.00,,---,0.14,130.00,VWS V14.01,2013-05-30 23:26:00,
2013-05-30 18:31:00,74.7,69.6,29.62,South,189,2.0,7.0,84,0.00,,---,0.14,160.00,VWS V14.01,2013-05-30 23:31:00,
2013-05-30 18:36:00,74.7,69.2,29.62,South,172,2.0,7.0,83,0.00,,---,0.14,127.00,VWS V14.01,2013-05-30 23:36:00,
2013-05-30 18:41:00,74.7,69.2,29.61,South,175,0.0,7.0,83,0.00,,---,0.14,88.00,VWS V14.01,2013-05-30 23:41:00,
2013-05-30 18:46:00,74.5,69.0,29.62,South,184,3.0,7.0,83,0.00,,---,0.14,123.00,VWS V14.01,2013-05-30 23:46:00,
2013-05-30 18:51:00,74.6,69.1,29.62,SW,214,3.0,7.0,83,0.00,,---,0.14,100.00,VWS V14.01,2013-05-30 23:51:00,
2013-05-30 18:56:00,74.6,68.8,29.62,SW,216,2.0,7.0,82,0.00,,---,0.14,63.00,VWS V14.01,2013-05-30 23:56:00,
2013-05-30 19:00:00,74.6,68.4,29.62,South,184,1.0,7.0,81,0.00,,---,0.14,53.00,VWS V14.01,2013-05-31 00:00:00,
2013-05-30 19:01:00,74.6,68.4,29.62,SW,219,2.0,5.0,81,0.00,,---,0.14,49.00,VWS V14.01,2013-05-31 00:01:00,
2013-05-30 19:06:00,74.7,68.5,29.62,SSE,161,2.0,6.0,81,0.00,,---,0.14,42.00,VWS V14.01,2013-05-31 00:06:00,
2013-05-30 19:11:00,74.6,68.4,29.62,SSE,159,2.0,6.0,81,0.00,,---,0.14,46.00,VWS V14.01,2013-05-31 00:11:00,
2013-05-30 19:16:00,74.7,68.5,29.62,SW,217,1.0,6.0,81,0.00,,---,0.14,35.00,VWS V14.01,2013-05-31 00:16:00,
2013-05-30 19:21:00,74.5,68.3,29.62,SW,214,2.0,6.0,81,0.00,,---,0.14,18.00,VWS V14.01,2013-05-31 00:21:00,
2013-05-30 19:26:00,74.3,68.1,29.62,SW,214,1.0,6.0,81,0.00,,---,0.14,9.00,VWS V14.01,2013-05-31 00:26:00,
2013-05-30 19:31:00,74.3,68.4,29.61,SW,214,0.0,6.0,82,0.00,,---,0.14,0.00,VWS V14.01,2013-05-31 00:31:00,
2013-05-30 19:36:00,74.4,68.6,29.62,SSE,161,1.0,6.0,82,0.00,,---,0.14,0.00,VWS V14.01,2013-05-31 00:36:00,
2013-05-30 19:41:00,74.3,69.2,29.60,SSE,159,0.0,6.0,84,0.01,,---,0.15,0.00,VWS V14.01,2013-05-31 00:41:00,
2013-05-30 19:46:00,73.9,68.8,29.61,SSE,159,0.0,6.0,84,0.01,,---,0.15,0.00,VWS V14.01,2013-05-31 00:46:00,
2013-05-30 19:51:00,73.7,68.9,29.61,SSE,159,1.0,6.0,85,0.01,,---,0.15,0.00,VWS V14.01,2013-05-31 00:51:00,
2013-05-30 19:56:00,73.2,68.4,29.61,SE,143,1.0,6.0,85,0.01,,---,0.15,0.00,VWS V14.01,2013-05-31 00:56:00,
2013-05-30 20:00:00,72.9,68.5,29.62,WSW,243,1.0,6.0,86,0.01,,---,0.15,0.00,VWS V14.01,2013-05-31 01:00:00,
2013-05-30 20:01:00,72.8,68.4,29.62,WSW,243,1.0,2.0,86,0.01,,---,0.15,0.00,VWS V14.01,2013-05-31 01:01:00,
2013-05-30 20:06:00,72.5,68.4,29.61,SE,136,3.0,3.0,87,0.01,,---,0.15,0.00,VWS V14.01,2013-05-31 01:06:00,
2013-05-30 20:11:00,72.1,68.0,29.61,ESE,107,0.0,4.0,87,0.01,,---,0.15,0.00,VWS V14.01,2013-05-31 01:11:00,
2013-05-30 20:16:00,71.7,68.0,29.61,ESE,107,0.0,4.0,88,0.01,,---,0.15,0.00,VWS V14.01,2013-05-31 01:16:00,
2013-05-30 20:21:00,71.5,67.8,29.61,ESE,107,2.0,4.0,88,0.01,,---,0.15,0.00,VWS V14.01,2013-05-31 01:21:00,
2013-05-30 20:26:00,71.3,67.9,29.62,SE,131,1.0,4.0,89,0.01,,---,0.15,0.00,VWS V14.01,2013-05-31 01:26:00,
2013-05-30 20:31:00,71.2,67.8,29.62,SSE,155,2.0,4.0,89,0.01,,---,0.15,0.00,VWS V14.01,2013-05-31 01:31:00,
2013-05-30 20:35:00,71.0,67.6,29.64,South,175,3.0,5.0,89,0.01,,---,0.15,0.00,VWS V14.01,2013-05-31 01:35:00,
2013-05-30 20:40:00,70.8,67.4,29.63,SSW,194,2.0,5.0,89,0.01,,---,0.15,0.00,VWS V14.01,2013-05-31 01:40:00,
2013-05-30 20:45:00,70.4,67.0,29.64,South,188,4.0,7.0,89,0.01,,---,0.15,0.00,VWS V14.01,2013-05-31 01:45:00,
2013-05-30 20:50:00,70.3,66.9,29.64,SSE,148,3.0,7.0,89,0.01,,---,0.15,0.00,VWS V14.01,2013-05-31 01:50:00,
2013-05-30 20:55:00,70.1,66.4,29.64,South,173,1.0,7.0,88,0.01,,---,0.15,0.00,VWS V14.01,2013-05-31 01:55:00,
2013-05-30 21:00:00,69.9,66.2,29.64,SSE,167,3.0,6.0,88,0.00,,---,0.15,0.00,VWS V14.01,2013-05-31 02:00:00,
2013-05-30 21:05:00,69.7,66.0,29.64,South,182,2.0,6.0,88,0.00,,---,0.15,0.00,VWS V14.01,2013-05-31 02:05:00,
2013-05-30 21:10:00,69.5,65.8,29.64,SSE,157,2.0,6.0,88,0.00,,---,0.15,0.00,VWS V14.01,2013-05-31 02:10:00,
2013-05-30 21:15:00,69.3,65.6,29.64,South,172,3.0,6.0,88,0.00,,---,0.15,0.00,VWS V14.01,2013-05-31 02:15:00,
2013-05-30 21:20:00,69.1,65.4,29.65,SSW,200,1.0,6.0,88,0.00,,---,0.15,0.00,VWS V14.01,2013-05-31 02:20:00,
2013-05-30 21:25:00,69.0,65.3,29.65,South,175,3.0,6.0,88,0.00,,---,0.15,0.00,VWS V14.01,2013-05-31 02:25:00,
2013-05-30 21:30:00,68.8,65.1,29.66,SE,143,3.0,7.0,88,0.00,,---,0.15,0.00,VWS V14.01,2013-05-31 02:30:00,
2013-05-30 21:35:00,68.6,64.9,29.66,South,186,3.0,7.0,88,0.00,,---,0.15,0.00,VWS V14.01,2013-05-31 02:35:00,
2013-05-30 21:40:00,68.5,64.8,29.66,SSW,203,3.0,7.0,88,0.01,,---,0.16,0.00,VWS V14.01,2013-05-31 02:40:00,
2013-05-30 21:45:00,68.1,64.1,29.66,South,185,3.0,7.0,87,0.01,,---,0.16,0.00,VWS V14.01,2013-05-31 02:45:00,
2013-05-30 21:50:00,68.0,64.0,29.66,SSW,196,4.0,7.0,87,0.01,,---,0.16,0.00,VWS V14.01,2013-05-31 02:50:00,
2013-05-30 21:55:00,67.8,63.5,29.65,SSW,211,2.0,7.0,86,0.01,,---,0.16,0.00,VWS V14.01,2013-05-31 02:55:00,
2013-05-30 22:00:00,67.7,63.4,29.65,SW,218,2.0,4.0,86,0.01,,---,0.16,0.00,VWS V14.01,2013-05-31 03:00:00,
2013-05-30 22:05:00,67.5,63.2,29.64,SSE,160,0.0,5.0,86,0.01,,---,0.16,0.00,VWS V14.01,2013-05-31 03:05:00,
2013-05-30 22:10:00,67.4,62.7,29.64,SSE,152,4.0,5.0,85,0.01,,---,0.16,0.00,VWS V14.01,2013-05-31 03:10:00,
2013-05-30 22:15:00,67.2,62.5,29.65,South,178,1.0,5.0,85,0.01,,---,0.16,0.00,VWS V14.01,2013-05-31 03:15:00,
2013-05-30 22:20:00,67.0,62.3,29.64,South,176,0.0,5.0,85,0.01,,---,0.16,0.00,VWS V14.01,2013-05-31 03:20:00,
2013-05-30 22:25:00,66.7,62.0,29.66,South,190,3.0,5.0,85,0.01,,---,0.16,0.00,VWS V14.01,2013-05-31 03:25:00,
2013-05-30 22:30:00,66.4,62.1,29.67,SSW,212,2.0,6.0,86,0.01,,---,0.16,0.00,VWS V14.01,2013-05-31 03:30:00,
2013-05-30 22:35:00,66.1,61.8,29.67,South,191,2.0,6.0,86,0.01,,---,0.16,0.00,VWS V14.01,2013-05-31 03:35:00,
2013-05-30 22:40:00,66.0,62.0,29.67,South,169,2.0,6.0,87,0.01,,---,0.16,0.00,VWS V14.01,2013-05-31 03:40:00,
2013-05-30 22:45:00,66.0,61.7,29.66,South,169,3.0,6.0,86,0.01,,---,0.16,0.00,VWS V14.01,2013-05-31 03:45:00,
2013-05-30 22:50:00,65.9,61.9,29.66,South,186,4.0,6.0,87,0.01,,---,0.16,0.00,VWS V14.01,2013-05-31 03:50:00,
2013-05-30 22:55:00,65.7,61.7,29.66,SSE,158,4.0,6.0,87,0.01,,---,0.16,0.00,VWS V14.01,2013-05-31 03:55:00,
2013-05-30 23:00:00,65.5,61.2,29.66,South,186,2.0,6.0,86,0.00,,---,0.16,0.00,VWS V14.01,2013-05-31 04:00:00,
2013-05-30 23:01:00,65.5,61.2,29.66,South,186,1.0,6.0,86,0.00,,---,0.16,0.00,VWS V14.01,2013-05-31 04:01:00,
2013-05-30 23:06:00,65.3,61.0,29.66,SSE,161,1.0,6.0,86,0.00,,---,0.16,0.00,VWS V14.01,2013-05-31 04:06:00,
2013-05-30 23:11:00,65.2,60.9,29.66,SSE,148,3.0,6.0,86,0.00,,---,0.16,0.00,VWS V14.01,2013-05-31 04:11:00,
2013-05-30 23:16:00,65.0,61.0,29.67,SSE,154,4.0,6.0,87,0.00,,---,0.16,0.00,VWS V14.01,2013-05-31 04:16:00,
2013-05-30 23:21:00,64.8,60.8,29.66,SSW,195,1.0,6.0,87,0.00,,---,0.16,0.00,VWS V14.01,2013-05-31 04:21:00,
2013-05-30 23:26:00,64.7,60.8,29.66,South,182,2.0,6.0,87,0.00,,---,0.16,0.00,VWS V14.01,2013-05-31 04:26:00,
2013-05-30 23:31:00,64.5,60.5,29.66,SSE,162,1.0,6.0,87,0.00,,---,0.16,0.00,VWS V14.01,2013-05-31 04:31:00,
2013-05-30 23:36:00,64.3,60.3,29.67,South,182,2.0,6.0,87,0.00,,---,0.16,0.00,VWS V14.01,2013-05-31 04:36:00,
2013-05-30 23:41:00,64.1,60.5,29.66,SSW,192,1.0,6.0,88,0.00,,---,0.16,0.00,VWS V14.01,2013-05-31 04:41:00,
2013-05-30 23:46:00,64.0,60.4,29.66,South,181,2.0,6.0,88,0.00,,---,0.16,0.00,VWS V14.01,2013-05-31 04:46:00,
2013-05-30 23:51:00,63.8,60.2,29.66,South,188,2.0,6.0,88,0.00,,---,0.16,0.00,VWS V14.01,2013-05-31 04:51:00,
2013-05-30 23:56:00,63.6,60.0,29.66,South,189,2.0,6.0,88,0.00,,---,0.16,0.00,VWS V14.01,2013-05-31 04:56:00,